[[{"header":{"parameterUnit":"m.s-1","parameterCategory":1,"la1":30.2991,"la2":30.254,"lo1":-89.0895,"lo2":-89.0444,"dy":0.0017,"dx":0.0017,"nx":28,"ny":28,"refTime":"2025-04-24T09:00:00:Z","depth":0,"parameterNumber":2,"parameterNumberName":"U-component_of_WINDS"},"data":[0,0,0,0,0,0,0,0,0,0,0,0,0,0,0,0,0,0,0,0,0,0,0,0,0,0,0,0,0,0,0,0,0,0,0,0,0,0,0,0,0,0,0,0,0,0,0,0,0,0,0,0,0,0,0,0,0,0,-2.7783,-2.7783,0,-2.7809,-2.7809,-2.7809,-2.7773,-2.7771,-2.777,-2.7769,-2.7797,-2.7799,-2.7801,0,0,0,0,0,0,0,0,0,0,0,0,0,-2.7705,-2.7707,-2.7783,-2.7783,-2.7784,-2.7809,-2.7809,-2.7809,-2.7773,-2.7771,-2.777,-2.7768,-2.7796,-2.7799,-2.7801,0,0,0,0,0,0,0,0,0,0,0,0,0,-2.7736,-2.7708,-2.7783,-2.7768,-2.7767,-2.7809,-2.7809,-2.781,-2.7773,-2.7771,-2.7769,-2.7767,-2.7796,-2.7799,-2.7801,-2.7859,0,0,-2.781,-2.7812,0,0,0,0,0,0,0,0,-2.7734,-2.7739,-2.777,-2.7769,-2.7768,-2.7785,-2.7792,-2.7826,-2.7774,-2.7771,-2.7769,-2.7766,-2.7795,-2.7798,-2.7807,-2.786,-2.7861,-2.7811,-2.7813,-2.7814,-2.7815,0,0,0,0,0,0,0,-2.7732,-2.7738,-2.7793,-2.7771,-2.777,-2.7762,-2.7764,-2.7798,-2.7794,-2.7771,-2.7768,-2.7772,-2.7794,-2.7804,-2.7807,-2.7862,-2.7811,-2.7813,-2.7815,-2.7816,-2.7965,-2.7967,0,0,0,0,0,0,-2.7732,-2.7736,-2.7792,-2.7794,-2.7746,-2.7765,-2.7767,-2.7782,-2.7793,-2.7793,-2.7774,-2.777,-2.78,-2.7804,-2.7808,-2.7877,-2.7814,-2.7817,-2.7818,-2.7963,-2.7965,-2.7968,0,0,0,0,0,0,-2.773,-2.7737,-2.7791,-2.7764,-2.7771,-2.7768,-2.7785,-2.7784,-2.7794,-2.7795,-2.7794,-2.7785,-2.7799,-2.7804,-2.7847,-2.7877,-2.7818,-2.7821,-2.796,-2.7964,-2.7967,-2.8014,0,0,0,0,0,0,-2.7728,-2.7737,-2.7758,-2.7765,-2.7772,-2.7829,-2.7787,-2.7785,-2.7799,-2.7794,-2.7805,-2.7805,-2.7798,-2.7842,-2.785,-2.788,-2.7823,-2.7957,-2.7962,-2.7966,-2.801,-2.8018,-2.8026,0,0,0,0,0,-2.7725,-2.777,-2.7759,-2.7766,-2.7798,-2.783,-2.7835,-2.7824,-2.7801,-2.7823,-2.7824,-2.7805,-2.7873,-2.7847,-2.7855,-2.7887,-2.7955,-2.796,-2.7965,-2.8006,-2.8017,-2.8026,0,0,0,0,0,0,-2.7767,-2.7771,-2.7758,-2.7807,-2.7818,-2.7824,-2.7851,-2.7836,-2.7855,-2.785,-2.7838,-2.7841,-2.7886,-2.7891,-2.7862,-2.7944,-2.791,-2.7917,-2.7939,-2.7949,-2.7957,-2.7955,-2.7825,0,0,0,0,0,-2.7781,-2.7806,-2.7809,-2.7851,-2.7858,-2.7854,-2.7867,-2.7858,-2.787,-2.7875,-2.788,-2.7893,-2.7917,-2.7933,-2.7956,-2.801,-2.8013,-2.8036,-2.8044,-2.8051,-2.8057,-2.8087,-2.8098,-2.7984,-2.7984,-2.7984,0,0,-2.7812,-2.7817,-2.7834,-2.786,-2.7868,-2.7895,-2.7858,-2.7888,-2.7908,-2.788,-2.792,-2.7924,-2.7938,-2.7987,-2.8009,-2.7993,-2.8089,-2.8057,-2.8063,-2.8065,-2.8093,-2.8104,-2.8114,-2.7987,-2.7986,-2.7986,0,0,-2.7882,-2.7888,-2.7924,-2.7933,-2.7946,-2.7943,-2.7952,-2.796,-2.7961,-2.8002,-2.7982,-2.8006,-2.8048,-2.8059,-2.807,-2.8146,-2.8129,-2.8154,-2.8196,-2.8225,-2.8234,-2.8242,-2.827,-2.8279,-2.8159,-2.816,-2.816,0,-2.7918,-2.7957,-2.7945,-2.7977,-2.7989,-2.7965,-2.8002,-2.8012,-2.8032,-2.8041,-2.8022,-2.8075,-2.8083,-2.8135,-2.8153,-2.8163,-2.8173,-2.8152,-2.8234,-2.8242,-2.8249,-2.8275,-2.8285,-2.8162,-2.8162,-2.8162,-2.8162,0,-2.8002,-2.8029,-2.8058,-2.8077,-2.8092,-2.8127,-2.8121,-2.8139,-2.8129,-2.8129,-2.8171,-2.8179,-2.8203,-2.8215,-2.8206,-2.8266,-2.8256,-2.8236,-2.8202,-2.8263,-2.8287,-2.8297,-2.8167,-2.8166,-2.8165,-2.8164,0,0,-2.8097,-2.811,-2.812,-2.8129,-2.8142,-2.8163,-2.8198,-2.822,-2.8236,-2.8251,-2.828,-2.8317,-2.8299,-2.8311,-2.8304,-2.833,-2.839,-2.8307,-2.8307,-2.8322,-2.8457,-2.8472,-2.8483,-2.8379,-2.8381,-2.8383,-2.8456,0,-2.8167,-2.8224,-2.8215,-2.8271,-2.8297,-2.8275,-2.8305,-2.8317,-2.8318,-2.8341,-2.8342,-2.8368,-2.8342,-2.835,-2.8375,-2.8377,-2.8417,-2.8372,-2.8407,-2.8408,-2.8403,-2.8496,-2.8511,-2.858,-2.8465,-2.8467,-2.8468,0,-2.8255,-2.8273,-2.8331,-2.8341,-2.8351,-2.8378,-2.8399,-2.8421,-2.8435,-2.8434,-2.8448,-2.8436,-2.8472,-2.8438,-2.8487,-2.8457,-2.8471,-2.8474,-2.8477,-2.8479,-2.8441,-2.8501,-2.8602,-2.8612,-2.8483,-2.8482,-2.8481,0,-2.8319,-2.8358,-2.8398,-2.8406,-2.8418,-2.8438,-2.8444,-2.8455,-2.847,-2.8489,-2.8499,-2.8522,-2.8535,-2.8553,-2.8548,-2.8524,-2.8599,-2.8564,-2.86,-2.86,-2.8616,-2.8615,-2.872,-2.8625,-2.8625,-2.8625,-2.8625,0,-2.8398,-2.8435,-2.8427,-2.8451,-2.8492,-2.8482,-2.8524,-2.8527,-2.8538,-2.8564,-2.8547,-2.8572,-2.8564,-2.8589,-2.8585,-2.8627,-2.8633,-2.8634,-2.8632,-2.8635,-2.8635,-2.8644,-2.8639,-2.8628,-2.8627,-2.8627,-2.8626,0,-2.8476,-2.8472,-2.8514,-2.8522,-2.8525,-2.8555,-2.8563,-2.8587,-2.8586,-2.862,-2.8627,-2.8627,-2.8656,-2.8653,-2.8685,-2.8683,-2.8735,-2.8727,-2.873,-2.8728,-2.8763,-2.876,-2.8878,-2.8893,-2.8788,-2.8789,-2.879,0,-2.8526,-2.8554,-2.8565,-2.858,-2.8588,-2.8613,-2.8628,-2.862,-2.8637,-2.8655,-2.8677,-2.8704,-2.8725,-2.8772,-2.8776,-2.8801,-2.8794,-2.8834,-2.8798,-2.88,-2.8795,-2.8793,-2.8796,-2.8841,-2.8842,-2.8843,-2.8844,0,-2.8616,-2.8613,-2.8634,-2.8656,-2.8674,-2.8691,-2.8706,-2.872,-2.8714,-2.8734,-2.8762,-2.8779,-2.8811,-2.8839,-2.8863,-2.887,-2.8857,-2.8855,-2.8865,-2.8868,-2.8868,-2.8868,-2.8749,-2.8852,-2.8851,-2.8851,-2.885,-2.885,-2.8682,-2.8706,-2.8717,-2.8742,-2.8753,-2.8767,-2.879,-2.8793,-2.8816,-2.8842,-2.8836,-2.8869,-2.8883,-2.8913,-2.8924,-2.895,-2.8936,-2.8949,-2.8953,-2.8956,-2.896,-2.8864,-2.8954,-2.8954,-2.8954,-2.8953,-2.8953,0,-2.8771,-2.8777,-2.88,-2.8822,-2.8842,-2.8827,-2.8843,-2.8861,-2.889,-2.8904,-2.8925,-2.8958,-2.8985,-2.8991,-2.9017,-2.9037,-2.9032,-2.9044,-2.9043,-2.9045,-2.8971,-2.8961,-2.9048,-2.9048,-2.9048,-2.9048,-2.9048,-2.9048,-2.882,-2.8859,-2.8858,-2.8903,-2.8909,-2.894,-2.8951,-2.8965,-2.8976,-2.9014,-2.9036,-2.904,-2.9051,-2.9078,-2.9102,-2.9103,-2.9114,-2.9129,-2.9128,-2.9059,-2.905,-2.9041,-2.9031,-2.9132,-2.9132,-2.9199,-2.92,-2.92]},{"header":{"parameterUnit":"m.s-1","parameterCategory":1,"la1":30.2991,"la2":30.254,"lo1":-89.0895,"lo2":-89.0444,"dy":0.0017,"dx":0.0017,"nx":28,"ny":28,"refTime":"2025-04-24T09:00:00:Z","depth":0,"parameterNumber":3,"parameterNumberName":"V-component_of_WINDS"},"data":[0,0,0,0,0,0,0,0,0,0,0,0,0,0,0,0,0,0,0,0,0,0,0,0,0,0,0,0,0,0,0,0,0,0,0,0,0,0,0,0,0,0,0,0,0,0,0,0,0,0,0,0,0,0,0,0,0,0,4.5517,4.5517,0,4.5511,4.5511,4.5511,4.5499,4.5499,4.5499,4.5499,4.5489,4.5489,4.5489,0,0,0,0,0,0,0,0,0,0,0,0,0,4.5518,4.5518,4.5517,4.5517,4.5517,4.5511,4.5511,4.5511,4.5499,4.5499,4.5499,4.5499,4.5489,4.5489,4.5489,0,0,0,0,0,0,0,0,0,0,0,0,0,4.5515,4.5518,4.5517,4.5511,4.551,4.5511,4.5511,4.5511,4.5499,4.5499,4.5499,4.5498,4.5489,4.5489,4.5489,4.5495,0,0,4.5489,4.5489,0,0,0,0,0,0,0,0,4.5515,4.5515,4.5512,4.5511,4.5511,4.5506,4.5508,4.5506,4.5499,4.5503,4.5499,4.5498,4.5495,4.5494,4.5494,4.5495,4.5495,4.5489,4.5489,4.5489,4.5489,0,0,0,0,0,0,0,4.5515,4.5515,4.5515,4.5512,4.5511,4.5508,4.5507,4.5507,4.5501,4.5503,4.5502,4.5502,4.5494,4.5494,4.5493,4.5494,4.5489,4.5489,4.5489,4.5489,4.5502,4.5503,0,0,0,0,0,0,4.5517,4.5515,4.5515,4.5515,4.5512,4.5508,4.5507,4.5508,4.5501,4.55,4.5502,4.5501,4.5494,4.5494,4.5493,4.5501,4.5489,4.5489,4.5489,4.5502,4.5502,4.5503,0,0,0,0,0,0,4.5517,4.5517,4.5515,4.5515,4.5514,4.5508,4.5509,4.5508,4.5507,4.55,4.5499,4.5503,4.5494,4.5493,4.5496,4.55,4.5489,4.5489,4.5501,4.5502,4.5502,4.5516,0,0,0,0,0,0,4.5517,4.5517,4.5519,4.5515,4.5515,4.5518,4.5509,4.5508,4.5507,4.5506,4.5501,4.5499,4.5493,4.5496,4.5495,4.55,4.5489,4.5501,4.5502,4.5502,4.5515,4.5517,4.5518,0,0,0,0,0,4.5517,4.5522,4.552,4.552,4.5518,4.5519,4.5518,4.5512,4.5508,4.551,4.5506,4.5499,4.55,4.5496,4.5496,4.55,4.55,4.5501,4.5502,4.5514,4.5516,4.5518,0,0,0,0,0,0,4.5526,4.5522,4.5518,4.5523,4.5521,4.5517,4.5519,4.5515,4.5514,4.5512,4.5505,4.5503,4.5507,4.5504,4.5499,4.5507,4.5499,4.55,4.5508,4.551,4.5512,4.5512,4.5489,0,0,0,0,0,4.5528,4.553,4.5526,4.553,4.553,4.5525,4.5525,4.5521,4.5519,4.5518,4.5514,4.5511,4.5511,4.5511,4.551,4.5515,4.5514,4.5518,4.552,4.5521,4.5522,4.5525,4.5527,4.5506,4.5506,4.5506,0,0,4.5533,4.5531,4.5533,4.5532,4.5531,4.5532,4.5524,4.5526,4.5527,4.5518,4.552,4.5517,4.5514,4.5518,4.552,4.5515,4.5528,4.5522,4.5524,4.5523,4.5526,4.5528,4.553,4.5506,4.5506,4.5506,0,0,4.5543,4.5542,4.5546,4.5545,4.5544,4.5541,4.5542,4.5538,4.5537,4.5539,4.5533,4.5534,4.5533,4.5532,4.5531,4.5543,4.5537,4.5543,4.5552,4.5555,4.5557,4.5558,4.5563,4.5564,4.5544,4.5544,4.5544,0,4.5549,4.5552,4.5548,4.5551,4.5551,4.5545,4.5549,4.5548,4.5546,4.5546,4.5542,4.5543,4.554,4.5544,4.5547,4.5547,4.5548,4.5543,4.5557,4.5558,4.556,4.5564,4.5566,4.5545,4.5545,4.5544,4.5544,0,4.556,4.5562,4.5566,4.5566,4.5566,4.557,4.5566,4.5567,4.5564,4.5561,4.5565,4.5562,4.5561,4.5562,4.5558,4.5566,4.5564,4.5559,4.5551,4.5563,4.5566,4.5568,4.5546,4.5545,4.5545,4.5545,0,0,4.5573,4.5573,4.5574,4.5574,4.5574,4.5575,4.5579,4.5579,4.5581,4.558,4.5583,4.5584,4.558,4.5579,4.5575,4.5578,4.5589,4.5573,4.5573,4.5576,4.5598,4.5602,4.5603,4.5586,4.5586,4.5586,4.5598,0,4.5582,4.5589,4.5587,4.5593,4.5596,4.5591,4.5594,4.5594,4.5592,4.5594,4.5592,4.5593,4.5587,4.5587,4.559,4.5587,4.5593,4.5586,4.5588,4.5588,4.5588,4.5605,4.5609,4.562,4.56,4.56,4.56,0,4.5593,4.5595,4.5603,4.5603,4.5604,4.5607,4.5608,4.561,4.561,4.5609,4.5609,4.5605,4.5609,4.5602,4.5607,4.5602,4.5603,4.5602,4.5602,4.5601,4.5594,4.5605,4.5624,4.5625,4.5603,4.5602,4.5602,0,4.5603,4.5607,4.5612,4.5613,4.5613,4.5615,4.5616,4.5615,4.5617,4.5618,4.5618,4.562,4.562,4.5621,4.5617,4.5613,4.5623,4.5616,4.5621,4.5622,4.5623,4.5622,4.5641,4.5624,4.5624,4.5624,4.5624,0,4.5613,4.5617,4.5616,4.5619,4.5625,4.5623,4.5628,4.5627,4.5628,4.5631,4.5626,4.5629,4.5625,4.5627,4.5624,4.5629,4.5629,4.5628,4.5627,4.5628,4.5628,4.5627,4.5626,4.5625,4.5625,4.5625,4.5624,0,4.5623,4.5623,4.5628,4.5629,4.563,4.5633,4.5634,4.5637,4.5636,4.564,4.5641,4.5639,4.5641,4.5639,4.564,4.5639,4.5645,4.5643,4.5645,4.5645,4.565,4.565,4.5669,4.5671,4.5653,4.5653,4.5654,0,4.5629,4.5633,4.5635,4.5638,4.5639,4.5642,4.5644,4.5642,4.5644,4.5646,4.5648,4.5651,4.5653,4.5658,4.5656,4.5658,4.5656,4.5663,4.5656,4.5657,4.5656,4.5655,4.5656,4.5663,4.5664,4.5664,4.5664,0,4.5641,4.5641,4.5644,4.5648,4.5651,4.5653,4.5655,4.5657,4.5656,4.5658,4.5662,4.5663,4.5667,4.5669,4.5671,4.5671,4.5667,4.5667,4.5668,4.5668,4.5669,4.5669,4.5649,4.5666,4.5665,4.5665,4.5665,4.5665,4.5649,4.5653,4.5655,4.5659,4.5661,4.5664,4.5667,4.5668,4.5671,4.5674,4.5673,4.5677,4.5678,4.5681,4.5681,4.5684,4.5681,4.5683,4.5684,4.5684,4.5685,4.567,4.5685,4.5685,4.5685,4.5684,4.5684,0,4.566,4.5662,4.5666,4.567,4.5674,4.5672,4.5675,4.5677,4.5682,4.5684,4.5686,4.5691,4.5694,4.5694,4.5697,4.5699,4.5698,4.57,4.5699,4.57,4.5687,4.5686,4.5701,4.5701,4.5701,4.5701,4.5701,4.5701,4.5666,4.5673,4.5673,4.5681,4.5683,4.5688,4.569,4.5692,4.5694,4.57,4.5703,4.5703,4.5705,4.5708,4.5711,4.5711,4.5712,4.5715,4.5714,4.5702,4.57,4.5699,4.5697,4.5715,4.5715,4.5726,4.5726,4.5726]}]]